GSML OMSJ-OMSJ

Flight info

Callsign GSML
Flight time 1h 5m
Altitude 5000
Route ABM
Aircraft TOR/M-VGD/C

Departure

Time 2026-05-07 13:37
Airport Sharjah International Airport (OMSJ)

Arrival

Time 2026-05-07 14:42
Airport Sharjah International Airport (OMSJ)
Time Latitude Longitude Altitude Speed Heading
2026-05-07 12:55 25.33719 55.49676 74 ft 0 kts 360°
2026-05-07 13:26 25.33724 55.49674 67 ft 4 kts 320°
2026-05-07 13:26 25.33716 55.49658 65 ft 1 kts 204°
2026-05-07 13:26 25.33694 55.49646 69 ft 8 kts 205°
2026-05-07 13:27 25.33630 55.49624 69 ft 9 kts 171°
2026-05-07 13:27 25.33590 55.49673 74 ft 11 kts 120°
2026-05-07 13:27 25.33545 55.49754 74 ft 13 kts 121°
2026-05-07 13:27 25.33539 55.49831 72 ft 8 kts 49°
2026-05-07 13:28 25.33589 55.49869 74 ft 10 kts 32°
2026-05-07 13:28 25.33663 55.49921 74 ft 14 kts 32°
2026-05-07 13:28 25.33675 55.49929 74 ft 0 kts 32°
2026-05-07 13:29 25.33678 55.49931 69 ft 4 kts 38°
2026-05-07 13:29 25.33738 55.49975 70 ft 18 kts 32°
2026-05-07 13:30 25.33803 55.50067 69 ft 14 kts 109°
2026-05-07 13:30 25.33756 55.50159 71 ft 14 kts 124°
2026-05-07 13:30 25.33698 55.50258 74 ft 16 kts 121°
2026-05-07 13:30 25.33630 55.50378 77 ft 21 kts 122°
2026-05-07 13:31 25.33543 55.50531 78 ft 27 kts 121°
2026-05-07 13:31 25.33427 55.50733 79 ft 36 kts 123°
2026-05-07 13:31 25.33274 55.51000 82 ft 44 kts 121°
2026-05-07 13:31 25.33108 55.51287 85 ft 45 kts 123°
2026-05-07 13:32 25.32938 55.51581 89 ft 46 kts 122°
2026-05-07 13:32 25.32764 55.51883 90 ft 47 kts 122°
2026-05-07 13:32 25.32586 55.52191 92 ft 48 kts 122°
2026-05-07 13:32 25.32405 55.52505 94 ft 49 kts 122°
2026-05-07 13:33 25.32221 55.52825 97 ft 50 kts 122°
2026-05-07 13:33 25.32048 55.53126 99 ft 45 kts 123°
2026-05-07 13:33 25.31954 55.53299 100 ft 14 kts 96°
2026-05-07 13:33 25.31984 55.53353 100 ft 0 kts 33°
2026-05-07 13:35 25.31985 55.53353 100 ft 0 kts 33°
2026-05-07 13:35 25.32008 55.53368 100 ft 8 kts 32°
2026-05-07 13:35 25.32096 55.53426 101 ft 15 kts 28°
2026-05-07 13:35 25.32160 55.53403 101 ft 0 kts 303°
2026-05-07 13:36 25.32312 55.53135 99 ft 109 kts 302°
2026-05-07 13:36 25.32948 55.52031 111 ft 219 kts 301°
2026-05-07 13:36 25.33907 55.50406 662 ft 292 kts 301°
2026-05-07 13:37 25.35137 55.48393 856 ft 340 kts 304°
2026-05-07 13:37 25.36575 55.46107 945 ft 382 kts 304°
2026-05-07 13:37 25.38150 55.43659 1029 ft 388 kts 305°
2026-05-07 13:37 25.39742 55.41329 1016 ft 374 kts 310°
2026-05-07 13:38 25.41664 55.39384 941 ft 378 kts 322°
2026-05-07 13:38 25.43976 55.37984 915 ft 383 kts 336°
2026-05-07 13:38 25.46460 55.36889 894 ft 386 kts 337°
2026-05-07 13:38 25.48976 55.35809 895 ft 389 kts 337°
2026-05-07 13:39 25.51511 55.34739 930 ft 391 kts 337°
2026-05-07 13:39 25.54018 55.33656 943 ft 392 kts 333°
2026-05-07 13:39 25.56355 55.32130 1004 ft 389 kts 324°
2026-05-07 13:39 25.58588 55.30434 1097 ft 389 kts 323°
2026-05-07 13:40 25.60826 55.28728 1103 ft 391 kts 323°
2026-05-07 13:40 25.63079 55.27025 1134 ft 392 kts 324°
2026-05-07 13:40 25.65302 55.25275 1166 ft 392 kts 322°
2026-05-07 13:40 25.67542 55.23551 1195 ft 392 kts 323°
2026-05-07 13:41 25.69790 55.21846 1208 ft 392 kts 323°
2026-05-07 13:41 25.72353 55.20706 590 ft 413 kts 353°
2026-05-07 13:41 25.75283 55.20674 142 ft 424 kts
2026-05-07 13:41 25.78211 55.20879 281 ft 421 kts
2026-05-07 13:42 25.81128 55.20785 275 ft 417 kts 354°
2026-05-07 13:42 25.84009 55.20433 272 ft 417 kts 351°
2026-05-07 13:42 25.86863 55.19900 301 ft 416 kts 348°
2026-05-07 13:42 25.89701 55.19232 248 ft 417 kts 346°
2026-05-07 13:43 25.92523 55.18450 247 ft 419 kts 343°
2026-05-07 13:43 25.95336 55.17571 236 ft 421 kts 342°
2026-05-07 13:43 25.98142 55.16620 241 ft 421 kts 341°
2026-05-07 13:43 26.00938 55.15632 219 ft 423 kts 340°
2026-05-07 13:44 26.03737 55.14618 199 ft 424 kts 340°
2026-05-07 13:44 26.06544 55.13585 196 ft 425 kts 340°
2026-05-07 13:44 26.09350 55.12547 206 ft 425 kts 340°
2026-05-07 13:44 26.12163 55.11500 216 ft 426 kts 340°
2026-05-07 13:45 26.14956 55.10390 214 ft 426 kts 336°
2026-05-07 13:45 26.17645 55.08995 201 ft 426 kts 333°
2026-05-07 13:45 26.20353 55.07642 202 ft 427 kts 336°
2026-05-07 13:45 26.23059 55.06373 204 ft 428 kts 335°
2026-05-07 13:46 26.25774 55.05010 197 ft 428 kts 335°
2026-05-07 13:46 26.28506 55.03680 195 ft 431 kts 336°
2026-05-07 13:46 26.31292 55.02329 194 ft 442 kts 334°
2026-05-07 13:46 26.34136 55.00912 202 ft 453 kts 335°
2026-05-07 13:47 26.37062 54.99496 212 ft 466 kts 335°
2026-05-07 13:47 26.40097 54.97999 206 ft 485 kts 335°
2026-05-07 13:47 26.43234 54.96459 199 ft 500 kts 335°
2026-05-07 13:47 26.46456 54.94885 202 ft 510 kts 335°
2026-05-07 13:48 26.49726 54.93268 198 ft 518 kts 335°
2026-05-07 13:48 26.53041 54.91645 207 ft 523 kts 335°
2026-05-07 13:48 26.56377 54.90004 285 ft 524 kts 335°
2026-05-07 13:48 26.59713 54.88356 359 ft 524 kts 335°
2026-05-07 13:49 26.63052 54.86718 402 ft 525 kts 335°
2026-05-07 13:49 26.66394 54.85066 404 ft 526 kts 335°
2026-05-07 13:49 26.69747 54.83412 423 ft 527 kts 335°
2026-05-07 13:49 26.73100 54.81764 546 ft 526 kts 335°
2026-05-07 13:50 26.76444 54.80098 729 ft 527 kts 335°
2026-05-07 13:50 26.79813 54.78445 1474 ft 524 kts 335°
2026-05-07 13:50 26.83115 54.76818 2910 ft 514 kts 335°
2026-05-07 13:50 26.86400 54.75166 3481 ft 528 kts 335°
2026-05-07 13:51 26.89879 54.73464 2498 ft 541 kts 336°
2026-05-07 13:51 26.93343 54.71752 3238 ft 545 kts 335°
2026-05-07 13:51 26.96823 54.69989 3456 ft 552 kts 335°
2026-05-07 13:51 27.00400 54.68198 2636 ft 573 kts 336°
2026-05-07 13:52 27.04117 54.66438 1981 ft 583 kts 335°
2026-05-07 13:52 27.07786 54.64537 1980 ft 579 kts 336°
2026-05-07 13:52 27.11401 54.62956 3215 ft 545 kts 340°
2026-05-07 13:52 27.14916 54.61800 5549 ft 506 kts 342°
2026-05-07 13:53 27.18172 54.60246 4905 ft 524 kts 337°
2026-05-07 13:53 27.21792 54.58630 2600 ft 584 kts 335°
2026-05-07 13:53 27.25340 54.56467 2137 ft 580 kts 329°
2026-05-07 13:53 27.28863 54.54231 1607 ft 581 kts 330°
2026-05-07 13:54 27.32398 54.52154 1871 ft 571 kts 335°
2026-05-07 13:54 27.36001 54.50346 2070 ft 559 kts 328°
2026-05-07 13:54 27.39285 54.48079 2599 ft 553 kts 334°
2026-05-07 13:54 27.42804 54.46536 3776 ft 527 kts 341°
2026-05-07 13:55 27.46166 54.45228 5704 ft 493 kts 340°
2026-05-07 13:55 27.49447 54.44061 3890 ft 526 kts 334°
2026-05-07 13:55 27.52696 54.41966 3032 ft 547 kts 339°
2026-05-07 13:55 27.56292 54.40419 2855 ft 557 kts 339°
2026-05-07 13:56 27.59701 54.38540 3895 ft 529 kts 332°
2026-05-07 13:56 27.63203 54.37219 3362 ft 541 kts 333°
2026-05-07 13:56 27.66652 54.35340 2781 ft 552 kts 331°
2026-05-07 13:56 27.69984 54.33226 3036 ft 547 kts 332°
2026-05-07 13:57 27.73470 54.31537 3256 ft 544 kts 338°
2026-05-07 13:57 27.76997 54.30038 3717 ft 536 kts 334°
2026-05-07 13:57 27.80313 54.28245 4100 ft 536 kts 336°
2026-05-07 13:57 27.83816 54.26644 3985 ft 541 kts 337°
2026-05-07 13:58 27.87041 54.24512 4390 ft 534 kts 326°
2026-05-07 13:58 27.90352 54.22729 4937 ft 525 kts 356°
2026-05-07 13:58 27.93806 54.21445 4114 ft 536 kts 328°
2026-05-07 13:58 27.97169 54.19512 3762 ft 552 kts 339°
2026-05-07 13:59 28.00657 54.17687 3369 ft 549 kts 322°
2026-05-07 13:59 28.03755 54.15091 3099 ft 556 kts 324°
2026-05-07 13:59 28.07269 54.13717 3590 ft 540 kts 347°
2026-05-07 13:59 28.10854 54.12299 3253 ft 552 kts 338°
2026-05-07 14:00 28.14491 54.10774 2958 ft 562 kts 339°
2026-05-07 14:00 28.18186 54.09294 3025 ft 563 kts 339°
2026-05-07 14:00 28.21719 54.07392 3064 ft 564 kts 331°
2026-05-07 14:00 28.25180 54.05440 3222 ft 560 kts 339°
2026-05-07 14:01 28.28981 54.04454 3413 ft 556 kts 343°
2026-05-07 14:01 28.32553 54.03128 4476 ft 527 kts 325°
2026-05-07 14:01 28.35402 54.00485 4421 ft 533 kts 313°
2026-05-07 14:01 28.38340 53.98299 6035 ft 492 kts 348°
2026-05-07 14:02 28.41706 53.97139 4834 ft 526 kts 338°
2026-05-07 14:02 28.45142 53.95723 5436 ft 522 kts 338°
2026-05-07 14:02 28.48608 53.94459 5761 ft 529 kts 343°
2026-05-07 14:02 28.52217 53.93286 5099 ft 552 kts 343°
2026-05-07 14:03 28.55963 53.92086 4678 ft 564 kts 341°
2026-05-07 14:03 28.59672 53.90593 4336 ft 563 kts 337°
2026-05-07 14:03 28.63272 53.88842 4067 ft 560 kts 330°
2026-05-07 14:03 28.66633 53.86606 3954 ft 561 kts 330°
2026-05-07 14:04 28.69943 53.84307 4022 ft 557 kts 323°
2026-05-07 14:04 28.73200 53.81870 3988 ft 561 kts 330°
2026-05-07 14:04 28.76682 53.79865 4249 ft 559 kts 331°
2026-05-07 14:04 28.80085 53.77732 4292 ft 559 kts 328°
2026-05-07 14:05 28.82944 53.75200 5482 ft 409 kts 282°
2026-05-07 14:05 28.83674 53.72849 10984 ft 269 kts 303°
2026-05-07 14:05 28.85418 53.71784 11028 ft 320 kts
2026-05-07 14:05 28.88033 53.72257 6567 ft 448 kts 13°
2026-05-07 14:06 28.90797 53.72295 6508 ft 337 kts 296°
2026-05-07 14:06 28.90626 53.70085 6685 ft 331 kts 201°
2026-05-07 14:06 28.88350 53.70202 5469 ft 357 kts 168°
2026-05-07 14:06 28.85515 53.71018 4473 ft 481 kts 169°
2026-05-07 14:07 28.82098 53.72119 4678 ft 541 kts 161°
2026-05-07 14:07 28.78578 53.74244 4307 ft 599 kts 142°
2026-05-07 14:07 28.75432 53.77528 4352 ft 628 kts 127°
2026-05-07 14:07 28.74318 53.82248 4541 ft 633 kts 87°
2026-05-07 14:08 28.74990 53.87222 4550 ft 636 kts 62°
2026-05-07 14:08 28.76928 53.91802 5006 ft 648 kts 64°
2026-05-07 14:08 28.78731 53.96431 5666 ft 643 kts 69°
2026-05-07 14:08 28.79964 54.01320 5432 ft 646 kts 86°
2026-05-07 14:09 28.78806 54.06045 5184 ft 616 kts 134°
2026-05-07 14:09 28.75152 54.08264 4878 ft 610 kts 155°
2026-05-07 14:09 28.71467 54.10681 5091 ft 614 kts 158°
2026-05-07 14:09 28.67542 54.12624 4826 ft 618 kts 154°
2026-05-07 14:10 28.63689 54.14881 4495 ft 623 kts 154°
2026-05-07 14:10 28.59723 54.16771 4370 ft 620 kts 158°
2026-05-07 14:10 28.55822 54.18798 4720 ft 612 kts 154°
2026-05-07 14:10 28.51967 54.20313 6153 ft 581 kts 184°
2026-05-07 14:11 28.47935 54.20771 4372 ft 608 kts 162°
2026-05-07 14:11 28.43944 54.22541 3831 ft 618 kts 158°
2026-05-07 14:11 28.39992 54.24378 4057 ft 611 kts 159°
2026-05-07 14:11 28.36159 54.26407 4466 ft 605 kts 158°
2026-05-07 14:12 28.32148 54.27999 3827 ft 618 kts 161°
2026-05-07 14:12 28.28135 54.29781 3782 ft 619 kts 158°
2026-05-07 14:12 28.24249 54.31878 3775 ft 620 kts 155°
2026-05-07 14:12 28.21682 54.33294 3837 ft 618 kts 156°
2026-05-07 14:13 28.17663 54.34882 3863 ft 611 kts 164°
2026-05-07 14:13 28.13700 54.36553 4313 ft 606 kts 160°
2026-05-07 14:13 28.09772 54.38313 4816 ft 609 kts 156°
2026-05-07 14:13 28.06005 54.40641 3994 ft 627 kts 153°
2026-05-07 14:14 28.02027 54.42436 4380 ft 609 kts 159°
2026-05-07 14:14 27.98179 54.44417 4612 ft 601 kts 160°
2026-05-07 14:14 27.94252 54.46024 5095 ft 598 kts 166°
2026-05-07 14:14 27.90292 54.47632 4839 ft 606 kts 173°
2026-05-07 14:15 27.86100 54.48353 3813 ft 622 kts 162°
2026-05-07 14:15 27.82108 54.50279 3829 ft 620 kts 157°
2026-05-07 14:15 27.78308 54.52275 5507 ft 578 kts 155°
2026-05-07 14:15 27.74474 54.53635 6109 ft 587 kts 158°
2026-05-07 14:16 27.70630 54.55194 4908 ft 599 kts 169°
2026-05-07 14:16 27.66587 54.56937 3142 ft 631 kts 151°
2026-05-07 14:16 27.62739 54.58577 4531 ft 585 kts 175°
2026-05-07 14:16 27.58794 54.59754 4387 ft 602 kts 147°
2026-05-07 14:17 27.55271 54.62528 2844 ft 626 kts 156°
2026-05-07 14:17 27.51262 54.63899 3453 ft 602 kts 167°
2026-05-07 14:17 27.47386 54.65098 5585 ft 557 kts 175°
2026-05-07 14:17 27.43455 54.65681 3716 ft 603 kts 168°
2026-05-07 14:18 27.39415 54.67320 2140 ft 625 kts 158°
2026-05-07 14:18 27.35490 54.69355 1816 ft 618 kts 156°
2026-05-07 14:18 27.31612 54.71375 1807 ft 609 kts 156°
2026-05-07 14:18 27.27637 54.72954 1976 ft 604 kts 163°
2026-05-07 14:19 27.23754 54.74635 2249 ft 594 kts 153°
2026-05-07 14:19 27.19906 54.76305 2171 ft 595 kts 159°
2026-05-07 14:19 27.16121 54.78128 2794 ft 589 kts 161°
2026-05-07 14:19 27.12243 54.79479 3762 ft 578 kts 166°
2026-05-07 14:20 27.08294 54.80481 2594 ft 593 kts 169°
2026-05-07 14:20 27.04377 54.82273 1263 ft 613 kts 145°
2026-05-07 14:20 27.01463 54.85699 1196 ft 608 kts 130°
2026-05-07 14:20 26.98519 54.89011 1781 ft 593 kts 150°
2026-05-07 14:21 26.94664 54.90437 2353 ft 584 kts 162°
2026-05-07 14:21 26.90783 54.91879 2288 ft 596 kts 164°
2026-05-07 14:21 26.86741 54.93150 2138 ft 601 kts 167°
2026-05-07 14:21 26.82769 54.94333 3461 ft 590 kts 162°
2026-05-07 14:22 26.78863 54.96041 1717 ft 618 kts 165°
2026-05-07 14:22 26.74698 54.97452 923 ft 627 kts 165°
2026-05-07 14:22 26.70539 54.98880 581 ft 619 kts 164°
2026-05-07 14:22 26.66433 55.00183 932 ft 609 kts 166°
2026-05-07 14:23 26.62333 55.01533 159 ft 618 kts 165°
2026-05-07 14:23 26.58300 55.02817 339 ft 603 kts 166°
2026-05-07 14:23 26.54283 55.04044 550 ft 598 kts 167°
2026-05-07 14:23 26.50244 55.05214 322 ft 601 kts 167°
2026-05-07 14:24 26.46182 55.06379 247 ft 601 kts 167°
2026-05-07 14:24 26.42153 55.07655 230 ft 602 kts 161°
2026-05-07 14:24 26.38257 55.09371 220 ft 603 kts 158°
2026-05-07 14:24 26.34326 55.10981 222 ft 602 kts 163°
2026-05-07 14:25 26.30375 55.12553 220 ft 603 kts 160°
2026-05-07 14:25 26.26441 55.14172 249 ft 602 kts 161°
2026-05-07 14:25 26.22496 55.15735 259 ft 603 kts 160°
2026-05-07 14:25 26.18548 55.17349 247 ft 604 kts 161°
2026-05-07 14:26 26.14595 55.18932 241 ft 605 kts 161°
2026-05-07 14:26 26.10717 55.20501 929 ft 558 kts 161°
2026-05-07 14:26 26.07331 55.21886 2154 ft 476 kts 161°
2026-05-07 14:26 26.04390 55.23085 2269 ft 429 kts 161°
2026-05-07 14:27 26.01751 55.24175 2324 ft 392 kts 161°
2026-05-07 14:27 25.99286 55.25204 2519 ft 358 kts 161°
2026-05-07 14:27 25.97025 55.26164 2564 ft 339 kts 161°
2026-05-07 14:27 25.94903 55.27100 2576 ft 333 kts 160°
2026-05-07 14:28 25.92659 55.28050 2700 ft 353 kts 161°
2026-05-07 14:28 25.90308 55.28975 2992 ft 356 kts 161°
2026-05-07 14:28 25.88204 55.30150 3758 ft 324 kts 152°
2026-05-07 14:28 25.86258 55.31278 4546 ft 310 kts 153°
2026-05-07 14:29 25.84354 55.32344 5173 ft 305 kts 152°
2026-05-07 14:29 25.82361 55.33454 5280 ft 338 kts 153°
2026-05-07 14:29 25.80181 55.34652 5165 ft 358 kts 153°
2026-05-07 14:29 25.77909 55.35920 5120 ft 372 kts 152°
2026-05-07 14:30 25.75588 55.37216 5048 ft 374 kts 153°
2026-05-07 14:30 25.73297 55.38475 4957 ft 356 kts 152°
2026-05-07 14:30 25.71264 55.39804 4938 ft 323 kts 149°
2026-05-07 14:30 25.69364 55.40952 4946 ft 301 kts 153°
2026-05-07 14:31 25.67517 55.41969 4969 ft 294 kts 153°
2026-05-07 14:31 25.65692 55.43003 4999 ft 297 kts 153°
2026-05-07 14:31 25.63835 55.44051 5032 ft 301 kts 153°
2026-05-07 14:31 25.61963 55.45114 5060 ft 304 kts 152°
2026-05-07 14:32 25.60072 55.46204 5026 ft 308 kts 152°
2026-05-07 14:32 25.58149 55.47291 5014 ft 312 kts 153°
2026-05-07 14:32 25.56216 55.48406 5005 ft 314 kts 152°
2026-05-07 14:32 25.54275 55.49537 5017 ft 316 kts 153°
2026-05-07 14:33 25.52319 55.50666 5019 ft 318 kts 153°
2026-05-07 14:33 25.50337 55.51783 4992 ft 321 kts 153°
2026-05-07 14:33 25.48352 55.52918 4999 ft 321 kts 152°
2026-05-07 14:33 25.46433 55.54104 5003 ft 319 kts 150°
2026-05-07 14:34 25.44474 55.55308 5011 ft 317 kts 152°
2026-05-07 14:34 25.42572 55.56456 5023 ft 315 kts 152°
2026-05-07 14:34 25.40638 55.57568 5044 ft 312 kts 153°
2026-05-07 14:34 25.38733 55.58704 5088 ft 310 kts 151°
2026-05-07 14:35 25.36873 55.59903 5080 ft 309 kts 149°
2026-05-07 14:35 25.34988 55.61052 4997 ft 311 kts 153°
2026-05-07 14:35 25.33079 55.62160 5004 ft 309 kts 153°
2026-05-07 14:35 25.31176 55.63257 4980 ft 308 kts 152°
2026-05-07 14:36 25.29242 55.64225 4871 ft 302 kts 171°
2026-05-07 14:36 25.27206 55.64125 4179 ft 289 kts 191°
2026-05-07 14:36 25.25245 55.63722 3567 ft 284 kts 192°
2026-05-07 14:36 25.23302 55.63325 3054 ft 281 kts 193°
2026-05-07 14:37 25.21400 55.62924 2986 ft 277 kts 192°
2026-05-07 14:37 25.18176 55.65056 3035 ft 308 kts 123°
2026-05-07 14:37 25.17028 55.67110 3021 ft 321 kts 122°
2026-05-07 14:38 25.16442 55.69447 3077 ft 318 kts 79°
2026-05-07 14:38 25.17590 55.71284 3052 ft 294 kts 21°
2026-05-07 14:38 25.19564 55.71815 2871 ft 290 kts 346°
2026-05-07 14:38 25.21457 55.71089 2857 ft 298 kts 334°
2026-05-07 14:39 25.23245 55.70009 2872 ft 286 kts 298°
2026-05-07 14:39 25.24229 55.68077 2765 ft 291 kts 296°
2026-05-07 14:39 25.25077 55.66124 2347 ft 273 kts 292°
2026-05-07 14:39 25.25972 55.64325 1877 ft 266 kts 300°
2026-05-07 14:40 25.26919 55.62636 1655 ft 246 kts 300°
2026-05-07 14:40 25.27768 55.61165 1566 ft 205 kts 301°
2026-05-07 14:40 25.28466 55.59976 1428 ft 162 kts 299°
2026-05-07 14:40 25.29053 55.58947 1214 ft 162 kts 299°
2026-05-07 14:41 25.29670 55.57849 1065 ft 169 kts 300°
2026-05-07 14:41 25.30291 55.56729 878 ft 173 kts 301°
2026-05-07 14:41 25.30905 55.55624 648 ft 163 kts 300°
2026-05-07 14:41 25.31499 55.54544 400 ft 170 kts 302°
2026-05-07 14:42 25.32147 55.53420 158 ft 173 kts 302°
2026-05-07 14:42 25.32655 55.52537 94 ft 78 kts 303°
2026-05-07 14:42 25.32848 55.52202 90 ft 35 kts 302°
2026-05-07 14:42 25.32951 55.52028 88 ft 23 kts 301°
2026-05-07 14:43 25.33042 55.51865 89 ft 27 kts 302°
2026-05-07 14:43 25.33144 55.51684 89 ft 30 kts 298°
2026-05-07 14:43 25.33196 55.51474 85 ft 30 kts 275°
2026-05-07 14:43 25.33204 55.51280 83 ft 14 kts 273°
2026-05-07 14:44 25.33205 55.51262 83 ft 0 kts 272°
2026-05-07 14:45 25.33206 55.51239 83 ft 8 kts 274°
2026-05-07 14:45 25.33217 55.51128 84 ft 22 kts 285°
2026-05-07 14:46 25.33303 55.50950 84 ft 29 kts 302°
2026-05-07 14:46 25.33426 55.50734 83 ft 36 kts 303°
2026-05-07 14:46 25.33568 55.50488 76 ft 40 kts 303°
2026-05-07 14:46 25.33704 55.50252 76 ft 32 kts 303°
2026-05-07 14:47 25.33806 55.50076 75 ft 17 kts 301°
2026-05-07 14:47 25.33763 55.49991 73 ft 16 kts 213°
2026-05-07 14:47 25.33669 55.49923 71 ft 16 kts 213°
2026-05-07 14:47 25.33561 55.49848 74 ft 19 kts 212°
2026-05-07 14:48 25.33560 55.49730 72 ft 19 kts 302°
2026-05-07 14:48 25.33634 55.49623 74 ft 13 kts 356°
2026-05-07 14:48 25.33678 55.49669 74 ft 5 kts 59°
2026-05-07 14:48 25.33700 55.49698 71 ft 4 kts 346°
2026-05-07 14:49 25.33728 55.49687 72 ft 0 kts 355°